Simultaneous Nadir Overpasses (SNOs) Predictions

Prediction of SNOs between AQUA and NPP Satellite Orbit:

Table of predicted SNOs for the next 14.0 days since TLE Epoch: 5/21/2021
Index Date (AQUA) Time (AQUA) Lat,Lon (AQUA) SZA (AQUA ) Date (NPP) Time (NPP) Lat,Lon (NPP) SZA (NPP ) Distance(km) Time Diff (sec)
1 05/22/2021 06:21:31 -75.87, 143.23 102.80 05/22/2021 06:21:08 -75.88, 143.32 102.81 2.65 23
2 05/22/2021 07:10:41 76.61, -46.76 76.33 05/22/2021 07:11:36 76.61, -46.79 76.29 0.75 55
3 05/24/2021 21:48:52 74.85, 88.65 77.89 05/24/2021 21:47:41 74.85, 88.63 77.96 0.48 71
4 05/24/2021 22:37:59 -75.90,-100.80 103.32 05/24/2021 22:38:05 -75.89,-100.88 103.30 2.29 6
5 05/27/2021 14:05:10 75.38,-154.07 76.87 05/27/2021 14:04:27 75.38,-154.05 76.90 0.72 43
6 05/27/2021 14:54:18 -76.36, 16.53 104.29 05/27/2021 14:54:52 -76.36, 16.50 104.31 0.81 34
7 05/30/2021 06:21:27 75.94, -36.56 75.83 05/30/2021 06:21:12 75.94, -36.48 75.82 2.44 15
8 05/30/2021 07:10:37 -76.80, 133.93 105.21 05/30/2021 07:11:39 -76.81, 133.98 105.27 1.26 62
9 06/01/2021 21:48:44 -75.20, -90.43 103.66 06/01/2021 21:47:40 -75.21, -90.34 103.63 2.68 64
10 06/01/2021 22:37:52 76.04, 79.64 75.37 06/01/2021 22:38:06 76.04, 79.60 75.37 1.19 14
11 06/04/2021 14:05:08 -75.40, 26.01 104.19 06/04/2021 14:04:33 -75.40, 25.99 104.15 0.54 35



Historial Predications of SNOs between AQUA and NPP
